TITAN 3C TRANSTAGE DEB, 3373

Orbit data source: Space-Track

TITAN 3C TRANSTAGE DEB, 3373 is space debris in LEO originally from a launch on Fri, 15 Oct 1965 UTC launched from the Air Force Eastern Test Range (AFETR). Debris objects in space refer to the collection of defunct objects orbiting the Earth. Examples of debris include non-operational satellites, rocket bodies, and fragments generated from explosions, collisions, or faulty payload assembly.

Loading next visibility...
Identifier
3373, 1965-082ML
Orbit
LEO
Country
Flag of USUS
Related business
Manufacturer
Unknown
Mission
Spacecraft
Bus & Motor
Unknown
Mass
Unknown
Launch date (UTC)
1965-10-15 (61 years ago)
Launch vehicle
Unknown
Launch site
Air Force Eastern Test Range (AFETR)
Object type
Payload
Rocket body
Debris
Shape & HBR
Unknown shape, 0.1 m
Radar Cross Section
Small (<0.1 m²)

Expand to show TLE details & history
Last TLE update: 1 day ago

TLE from 1 day ago
0 TITAN 3C TRANSTAGE DEB
1 03373U 65082ML  26134.94064666  .00003525  00000-0  71429-3 0  9995
2 03373  30.9729 335.4914 0150291  52.5465 308.8725 14.52744539 45941
Epoch: 2026-05-14T22:34Z
TLE epoch observation values (Epoch: 2026-05-14T22:34:31.871Z)
Latitude
-0°
Longitude
124.17949°
Altitude
649.325 km
Speed
7.57 km/s
True Right ascension
22h 21m 57s
True Declination
0° 00' 00"
Sunlit
Object was in daylight at epoch
Visualization orbit readout
Latitude
Unknown
Longitude
Unknown
Altitude
Unknown
Speed
Unknown
Apparent Right ascension
Unknown
Apparent Declination
Unknown
Sunlit
N/A
Visualization observer readout
Local Sidereal Time
16:58:24
Azimuth
Unknown
Elevation
Unknown
Doppler factor
Unknown
Orbital elements
Apogee altitude
827.133 km
Perigee altitude
613.762 km
Semi-major axis
7,098.584 km
Eccentricity
0.01503
Inclination
30.9729°
RAAN
335.4914°
Arg. of periapsis
52.5465°
True anomaly
307.51582°
Mean anomaly
308.8725°
Eccentric anomaly
308.19576°
Mean motion
3.62899 °/min
Orbital period
99.2 mins
BSTAR
0.00071429

Documentation

Showing up to 5 results
|